AAY3890 KPVU-KBUR

Flight info

Callsign AAY3890
Flight time N/A
Altitude 36000
Route DITTI1 DAHLI MLF WINEN/N0458F370 EEVUN/N0461F360 Q73 GUNTR Q96 PURSE JANNY5
Aircraft A320/M-SDE3FGHIRWY/LB1

Departure

Time 2026-04-25 02:04
Airport Provo Municipal Airport (KPVU)

Arrival

Time N/A
Airport Hollywood Burbank/Bob Hope Airport (KBUR)
Time Latitude Longitude Altitude Speed Heading
2026-04-25 01:43 40.21402 -111.71361 4498 ft 0 kts 56°
2026-04-25 01:58 40.21398 -111.71368 4498 ft 2 kts 56°
2026-04-25 01:58 40.21389 -111.71385 4502 ft 2 kts 56°
2026-04-25 01:58 40.21379 -111.71402 4500 ft 2 kts 21°
2026-04-25 01:59 40.21364 -111.71403 4502 ft 2 kts 326°
2026-04-25 01:59 40.21357 -111.71397 4501 ft 0 kts 326°
2026-04-25 02:01 40.21360 -111.71404 4498 ft 4 kts 307°
2026-04-25 02:01 40.21351 -111.71461 4501 ft 7 kts 238°
2026-04-25 02:01 40.21330 -111.71498 4501 ft 5 kts 221°
2026-04-25 02:01 40.21280 -111.71483 4500 ft 10 kts 147°
2026-04-25 02:02 40.21215 -111.71426 4501 ft 11 kts 146°
2026-04-25 02:02 40.21177 -111.71393 4501 ft 6 kts 148°
2026-04-25 02:02 40.21140 -111.71400 4498 ft 6 kts 223°
2026-04-25 02:02 40.21107 -111.71459 4500 ft 13 kts 234°
2026-04-25 02:03 40.21090 -111.71530 4497 ft 7 kts 301°
2026-04-25 02:03 40.21155 -111.71590 4499 ft 30 kts 326°
2026-04-25 02:03 40.21580 -111.71967 4503 ft 114 kts 326°
2026-04-25 02:03 40.22409 -111.72698 4677 ft 163 kts 326°
2026-04-25 02:04 40.23309 -111.73692 5611 ft 174 kts 300°
2026-04-25 02:04 40.23494 -111.75226 6378 ft 182 kts 255°
2026-04-25 02:04 40.22843 -111.76753 6630 ft 204 kts 234°
2026-04-25 02:04 40.21879 -111.78281 6835 ft 226 kts 230°
2026-04-25 02:05 40.20795 -111.79905 7074 ft 249 kts 231°
2026-04-25 02:05 40.19606 -111.81703 7441 ft 273 kts 232°
2026-04-25 02:05 40.18356 -111.83627 8170 ft 280 kts 233°
2026-04-25 02:05 40.17108 -111.85585 9112 ft 281 kts 233°
2026-04-25 02:06 40.15871 -111.87558 10052 ft 280 kts 234°
2026-04-25 02:06 40.14499 -111.89486 10467 ft 303 kts 223°
2026-04-25 02:06 40.12676 -111.91093 10703 ft 331 kts 210°
2026-04-25 02:06 40.10485 -111.92179 11065 ft 350 kts 197°
2026-04-25 02:07 40.08038 -111.92830 11755 ft 356 kts 195°
2026-04-25 02:07 40.05606 -111.93490 12508 ft 358 kts 194°
2026-04-25 02:07 40.03149 -111.94104 13246 ft 363 kts 189°
2026-04-25 02:07 40.00607 -111.94167 13952 ft 369 kts 178°
2026-04-25 02:08 39.98066 -111.93523 14604 ft 376 kts 167°
2026-04-25 02:08 39.95549 -111.92526 15264 ft 379 kts 166°
2026-04-25 02:08 39.93023 -111.91516 15900 ft 382 kts 167°
2026-04-25 02:08 39.90459 -111.90563 16519 ft 383 kts 172°
2026-04-25 02:09 39.87821 -111.90138 17099 ft 381 kts 182°
2026-04-25 02:09 39.85180 -111.90350 17641 ft 382 kts 191°
2026-04-25 02:09 39.82512 -111.90814 18025 ft 391 kts 191°
2026-04-25 02:09 39.79806 -111.91283 18487 ft 395 kts 191°
2026-04-25 02:10 39.77106 -111.91747 18999 ft 397 kts 191°
2026-04-25 02:10 39.74324 -111.92226 19511 ft 399 kts 192°
2026-04-25 02:10 39.71655 -111.92984 19982 ft 398 kts 201°
2026-04-25 02:10 39.69073 -111.94367 20486 ft 395 kts 211°
2026-04-25 02:11 39.66723 -111.96220 20968 ft 395 kts 216°
2026-04-25 02:11 39.64399 -111.98140 21477 ft 398 kts 216°
2026-04-25 02:11 39.62090 -112.00039 21940 ft 401 kts 215°
2026-04-25 02:11 39.59688 -112.02004 22402 ft 404 kts 215°
2026-04-25 02:12 39.57331 -112.03929 22861 ft 407 kts 215°
2026-04-25 02:12 39.54931 -112.05891 23308 ft 409 kts 216°
2026-04-25 02:12 39.52517 -112.07872 23684 ft 411 kts 216°
2026-04-25 02:12 39.50099 -112.09858 24081 ft 413 kts 216°
2026-04-25 02:13 39.47666 -112.11848 24463 ft 414 kts 216°
2026-04-25 02:13 39.45220 -112.13840 24843 ft 416 kts 216°
2026-04-25 02:13 39.42763 -112.15842 25218 ft 419 kts 216°
2026-04-25 02:13 39.40295 -112.17850 25578 ft 420 kts 216°
2026-04-25 02:14 39.37814 -112.19866 25893 ft 422 kts 216°
2026-04-25 02:14 39.35316 -112.21898 26167 ft 426 kts 216°
2026-04-25 02:14 39.32803 -112.23947 26518 ft 429 kts 216°
2026-04-25 02:14 39.30275 -112.26005 26842 ft 430 kts 216°
2026-04-25 02:15 39.27734 -112.28068 27209 ft 432 kts 216°
2026-04-25 02:15 39.25188 -112.30134 27581 ft 433 kts 216°
2026-04-25 02:15 39.22631 -112.32204 27949 ft 434 kts 216°
2026-04-25 02:15 39.20063 -112.34279 28293 ft 436 kts 216°
2026-04-25 02:16 39.17493 -112.36356 28634 ft 437 kts 216°
2026-04-25 02:16 39.14920 -112.38432 29066 ft 436 kts 216°
2026-04-25 02:16 39.12356 -112.40501 29544 ft 433 kts 215°
2026-04-25 02:16 39.09806 -112.42559 29998 ft 432 kts 215°
2026-04-25 02:17 39.07267 -112.44607 30392 ft 430 kts 215°
2026-04-25 02:17 39.04737 -112.46643 30760 ft 429 kts 215°
2026-04-25 02:17 39.02204 -112.48682 31074 ft 429 kts 216°
2026-04-25 02:17 38.99671 -112.50717 31338 ft 429 kts 216°
2026-04-25 02:18 38.97150 -112.52739 31693 ft 428 kts 216°
2026-04-25 02:18 38.94624 -112.54764 32067 ft 426 kts 216°
2026-04-25 02:18 38.92113 -112.56776 32455 ft 425 kts 216°
2026-04-25 02:18 38.89607 -112.58783 32815 ft 424 kts 216°
2026-04-25 02:19 38.87109 -112.60782 33172 ft 423 kts 216°
2026-04-25 02:19 38.84622 -112.62772 33583 ft 420 kts 216°
2026-04-25 02:19 38.82149 -112.64752 33979 ft 418 kts 216°
2026-04-25 02:19 38.79685 -112.66721 34304 ft 417 kts 217°
2026-04-25 02:20 38.77226 -112.68683 34610 ft 416 kts 217°
2026-04-25 02:20 38.74772 -112.70642 34897 ft 415 kts 217°
2026-04-25 02:20 38.72322 -112.72595 35172 ft 415 kts 217°
2026-04-25 02:20 38.69873 -112.74546 35436 ft 415 kts 217°
2026-04-25 02:21 38.67423 -112.76495 35671 ft 415 kts 217°
2026-04-25 02:21 38.64973 -112.78447 35783 ft 415 kts 217°
2026-04-25 02:21 38.62515 -112.80402 35801 ft 416 kts 217°
2026-04-25 02:22 38.57592 -112.84299 35825 ft 416 kts 217°
2026-04-25 02:22 38.52679 -112.88184 35835 ft 415 kts 217°
2026-04-25 02:23 38.47768 -112.92064 35850 ft 415 kts 217°
2026-04-25 02:23 38.42856 -112.95938 35851 ft 415 kts 217°
2026-04-25 02:24 38.37942 -112.99814 35855 ft 415 kts 217°
2026-04-25 02:24 38.33452 -113.04290 35853 ft 409 kts 226°
2026-04-25 02:25 38.29228 -113.09145 35837 ft 409 kts 226°
2026-04-25 02:25 38.25003 -113.13992 35818 ft 409 kts 226°
2026-04-25 02:26 38.20766 -113.18830 35805 ft 410 kts 226°
2026-04-25 02:26 38.16520 -113.23662 35800 ft 410 kts 226°
2026-04-25 02:27 38.12275 -113.28496 35795 ft 410 kts 226°
2026-04-25 02:27 38.08022 -113.33331 35793 ft 410 kts 226°
2026-04-25 02:28 38.03778 -113.38157 35795 ft 410 kts 226°
2026-04-25 02:28 37.99533 -113.42978 35802 ft 409 kts 226°
2026-04-25 02:29 37.95230 -113.47704 35816 ft 413 kts 220°
2026-04-25 02:29 37.89995 -113.50779 35807 ft 428 kts 200°
2026-04-25 02:30 37.84105 -113.52235 35805 ft 432 kts 198°
2026-04-25 02:30 37.78204 -113.53654 35786 ft 432 kts 198°
2026-04-25 02:31 37.72305 -113.55081 35803 ft 432 kts 198°
2026-04-25 02:31 37.66405 -113.56505 35813 ft 432 kts 198°
2026-04-25 02:32 37.60501 -113.57919 35819 ft 432 kts 198°
2026-04-25 02:32 37.54964 -113.59246 35790 ft 431 kts 199°